Needles, CA

3:11 PM PDT on September 25, 2016 (GMT -0700)
Needles

Weather History for KEED - March, 2013

Change the Weather History Date:

Friday, March 29, 2013

  Actual Average Record
Temperature  
Mean Temperature 76 °F 67 °F  
Max Temperature 90 °F 80 °F 95 °F (2015)
Min Temperature 62 °F 54 °F 38 °F (1975)
Degree Days  
Heating Degree Days 0    
Cooling Degree Days 10    
Growing Degree Days 26 (Base 50)    
Moisture  
Dew Point 31 °F    
Average Humidity 20    
Maximum Humidity 34    
Minimum Humidity 12    
Precipitation  
Precipitation 0.00 in 0.02 in 0.16 in (1985)
Month to date precipitation 0.52  
Year to date precipitation 2.02  
Sea Level Pressure  
Sea Level Pressure 29.93 in    
Wind  
Wind Speed 5 mph (SW)    
Max Wind Speed 12 mph    
Max Gust Speed -    
Visibility 10 miles    
Events      
T = Trace of Precipitation, MM = Missing Value Source: NWS Daily Summary

Daily Weather History Graph

Daily Weather History Graph

Search for Another Location

Airport or City:

Trip Planner

Search our weather history database for the weather conditions in past years. The results will help you decide how hot, cold, wet, or windy it might be!

Date:

Astronomy

Mar. 29, 2013 Rise Set
Actual Time 6:29 AM PDT 6:57 PM PDT
Civil Twilight 6:03 AM PDT 7:22 PM PDT
Nautical Twilight 5:34 AM PDT 7:52 PM PDT
Astronomical Twilight 5:03 AM PDT 8:23 PM PDT
Moon 9:53 PM PDT (3/29) 7:48 AM PDT (3/29)
Length of Visible Light 13h 19m
Length of Day
12h 28m
Waning Gibbous, 93% of the Moon is Illuminated
Mar 29
Waning Gibbous
Apr 2
Last Quarter
Apr 10
New
Apr 18
First Quarter
Apr 25
Full

Hourly Weather History & Observations

Time (PDT) Temp. Dew Point Humidity Pressure Visibility Wind Dir Wind Speed Gust Speed Precip Events Conditions
12:56 AM 70.0 °F 32.0 °F 25% 29.91 in 10.0 mi North 5.8 mph - N/A   Clear
1:56 AM 70.0 °F 32.0 °F 25% 29.92 in 10.0 mi Calm Calm - N/A   Clear
2:56 AM 64.9 °F 30.9 °F 28% 29.92 in 10.0 mi West 4.6 mph - N/A   Clear
3:56 AM 64.0 °F 30.9 °F 29% 29.93 in 10.0 mi SW 4.6 mph - N/A   Clear
4:56 AM 62.1 °F 30.9 °F 31% 29.94 in 10.0 mi West 5.8 mph - N/A   Clear
5:56 AM 63.0 °F 32.0 °F 31% 29.96 in 10.0 mi NNW 5.8 mph - N/A   Clear
6:56 AM 62.1 °F 33.1 °F 34% 29.97 in 10.0 mi Calm Calm - N/A   Clear
7:56 AM 66.9 °F 33.1 °F 28% 29.99 in 10.0 mi Calm Calm - N/A   Clear
8:56 AM 72.0 °F 33.1 °F 24% 30.00 in 10.0 mi Calm Calm - N/A   Clear
9:56 AM 75.0 °F 33.1 °F 22% 30.00 in 10.0 mi East 4.6 mph - N/A   Clear
10:56 AM 80.1 °F 34.0 °F 19% 29.99 in 10.0 mi East 3.5 mph - N/A   Clear
11:56 AM 84.0 °F 33.1 °F 16% 29.98 in 10.0 mi SE 5.8 mph - N/A   Clear
12:56 PM 87.1 °F 30.9 °F 13% 29.95 in 10.0 mi Calm Calm - N/A   Clear
1:56 PM 89.1 °F 30.9 °F 12% 29.92 in 10.0 mi SSE 11.5 mph - N/A   Clear
2:56 PM 88.0 °F 28.9 °F 12% 29.91 in 10.0 mi SW 6.9 mph - N/A   Clear
3:56 PM 88.0 °F 28.9 °F 12% 29.89 in 10.0 mi Variable 4.6 mph - N/A   Clear
4:56 PM 88.0 °F 30.9 °F 13% 29.87 in 10.0 mi Calm Calm - N/A   Clear
5:56 PM 88.0 °F 32.0 °F 14% 29.87 in 10.0 mi WSW 6.9 mph - N/A   Clear
6:56 PM 86.0 °F 28.0 °F 12% 29.88 in 10.0 mi WSW 11.5 mph - N/A   Clear
7:56 PM 82.9 °F 27.0 °F 13% 29.88 in 10.0 mi WSW 8.1 mph - N/A   Clear
8:56 PM 80.1 °F 27.0 °F 14% 29.91 in 10.0 mi SSW 8.1 mph - N/A   Clear
9:56 PM 77.0 °F 28.9 °F 17% 29.92 in 10.0 mi WSW 9.2 mph - N/A   Clear
10:56 PM 75.9 °F 30.0 °F 19% 29.92 in 10.0 mi WSW 9.2 mph - N/A   Clear
11:56 PM 75.9 °F 32.0 °F 20% 29.92 in 10.0 mi ESE 3.5 mph - N/A   Clear